Terug naar catalogus

SL-16 DEB

ActiefLEO
NORAD 22394·DEBRIS·🇷🇺 Russia

Gelanceerd Dec 25, 1992 vanaf Baikonur Cosmodrome

Loading…

Volgende Passages (komende 24 uur)

TLE

VersSource: Space-Track

Epoch: Sep 14, 2026, 19:37 UTC

1 22394U 92093CK  26257.81789005  .00001108  00000-0  62624-3 0  9996
2 22394  71.2744  98.6130 0070665 270.2052  89.0973 14.11078292723807

Volg SL-16 DEB in realtime met AllMySat

Download on the App Store